Tracking 18793 objects as of 22-September-2017
HD Live streaming from Space Station
objects crossing your sky now

COSMOS 839

Track COSMOS 839 now!
10-day predictions
COSMOS 839 is classified as:


NORAD ID: 9011
Int'l Code: 1976-067A
Perigee: 994.4 km
Apogee: 2,094.2 km
Inclination: 65.9 °
Period: 116.8 minutes
Semi major axis: 7915 km
RCS: 0.8498 m2 (medium)
Launch date: July 8, 1976
Source: Commonwealth of Independent States (former USSR) (CIS)
Launch site: PLESETSK MISSILE AND SPACE COMPLEX (PKMTR)
aabbcc
Your satellite tracking list
Your tracking list is empty





NASA's NSSDC Master Catalog

Two Line Element Set (TLE):
1  9011U 76067A   17264.51479255 -.00000045 +00000-0 +30718-4 0  9998
2  9011 065.8547 310.6409 0694678 085.4040 282.5897 12.32826783866791
Source of the keplerian elements: AFSPC